Tracking 19792 objects as of 16-Jul-2019
HD Live streaming from Space Station
objects crossing your sky now

THORAD DELTA 1 DEB

Track THORAD DELTA 1 DEB now!
10-day predictions


NORAD ID: 8561
Int'l Code: 1974-089CY
Perigee: 1,352.5 km
Apogee: 1,462.6 km
Inclination: 101.7 °
Period: 113.8 minutes
Semi major axis: 7778 km
RCS: 0.0788 m2 (small)
Launch date: November 15, 1974
Source: United States (US)
Launch site: AIR FORCE WESTERN TEST RANGE (AFWTR)

Note: This is SATELLITE DEBRIS
aabbcc
Your satellite tracking list
Your tracking list is empty




NASA's NSSDC Master Catalog

Two Line Element Set (TLE):
1  8561U 74089CY  19196.95310237 +.00000090 +00000-0 +72237-3 0  9997
2  8561 101.6620 199.0165 0070799 156.5470 258.7263 12.65474272055282
Source of the keplerian elements: AFSPC